UTA4201 UUWW-UWLL

Flight info

Callsign UTA4201
Flight time 1h 23m
Altitude 31000
Route KOGO3D KOGOM L94 EKPIR M864 IBROT T784 OTKOL T787 OKSUD T778 TERDI TERD1E
Aircraft B38M/M-SBDFGM3RWXY/LB1

Departure

Time 2026-04-30 17:41
Airport Vnukovo International Airport (UUWW)

Arrival

Time 2026-04-30 19:05
Airport Ulyanovsk Baratayevka Airport (UWLL)
Time Latitude Longitude Altitude Speed Heading
2026-04-30 17:39 55.60127 37.31408 2427 ft 213 kts 72°
2026-04-30 17:41 55.57002 37.54966 7936 ft 291 kts 98°
2026-04-30 17:42 55.57245 37.61962 7970 ft 282 kts 72°
2026-04-30 17:42 55.59839 37.71266 8462 ft 286 kts 57°
2026-04-30 17:43 55.61834 37.77257 9878 ft 288 kts 58°
2026-04-30 17:44 55.64086 37.87200 11780 ft 300 kts 81°
2026-04-30 17:44 55.64795 37.98618 12688 ft 338 kts 70°
2026-04-30 17:46 55.69089 38.19349 14876 ft 368 kts 68°
2026-04-30 17:47 55.72470 38.36710 16762 ft 383 kts 82°
2026-04-30 17:48 55.75752 38.53702 18497 ft 377 kts 33°
2026-04-30 17:48 55.83028 38.58349 19721 ft 376 kts 12°
2026-04-30 17:49 55.93264 38.62997 21265 ft 384 kts 11°
2026-04-30 17:50 56.03775 38.66906 22667 ft 391 kts 12°
2026-04-30 17:51 56.09024 38.77519 23459 ft 423 kts 82°
2026-04-30 17:52 56.07750 38.93367 24419 ft 432 kts 99°
2026-04-30 17:53 56.04611 39.19888 25817 ft 440 kts 99°
2026-04-30 17:54 56.02002 39.41349 26782 ft 447 kts 99°
2026-04-30 17:55 56.00021 39.63255 27668 ft 445 kts 80°
2026-04-30 17:56 56.02839 39.84582 28515 ft 451 kts 84°
2026-04-30 17:57 56.03143 40.01532 29068 ft 456 kts 85°
2026-04-30 17:58 56.03393 40.18534 29649 ft 460 kts 85°
2026-04-30 17:59 56.03677 40.41274 30622 ft 458 kts 85°
2026-04-30 18:00 56.03913 40.64040 31181 ft 460 kts 85°
2026-04-30 18:01 56.04085 40.92826 31182 ft 464 kts 86°
2026-04-30 18:02 56.04229 41.27740 31182 ft 474 kts 85°
2026-04-30 18:04 56.04351 41.63284 31180 ft 478 kts 85°
2026-04-30 18:06 56.04354 42.10966 31128 ft 479 kts 86°
2026-04-30 18:08 56.02348 42.52272 31127 ft 491 kts 109°
2026-04-30 18:09 55.95687 42.73672 31128 ft 497 kts 120°
2026-04-30 18:10 55.88039 42.94156 31128 ft 497 kts 122°
2026-04-30 18:11 55.75057 43.30002 31136 ft 490 kts 116°
2026-04-30 18:13 55.66550 43.56261 31155 ft 493 kts 116°
2026-04-30 18:14 55.59776 43.83683 31155 ft 484 kts 97°
2026-04-30 18:15 55.58574 44.19105 31155 ft 481 kts 88°
2026-04-30 18:16 55.58058 44.42604 31146 ft 470 kts 88°
2026-04-30 18:17 55.57926 44.48308 31154 ft 459 kts 88°
2026-04-30 18:17 55.57796 44.53916 31159 ft 456 kts 88°
2026-04-30 18:18 55.57264 44.70754 31152 ft 464 kts 95°
2026-04-30 18:18 55.55482 44.81802 31153 ft 473 kts 111°
2026-04-30 18:19 55.52076 44.91769 31155 ft 477 kts 124°
2026-04-30 18:19 55.50024 44.96238 31148 ft 466 kts 128°
2026-04-30 18:19 55.47866 45.00479 31156 ft 459 kts 130°
2026-04-30 18:20 55.43462 45.08492 31157 ft 459 kts 132°
2026-04-30 18:20 55.38887 45.16363 31155 ft 460 kts 133°
2026-04-30 18:21 55.34291 45.24031 31155 ft 460 kts 134°
2026-04-30 18:21 55.29622 45.31694 31155 ft 459 kts 134°
2026-04-30 18:22 55.24941 45.39306 31155 ft 460 kts 134°
2026-04-30 18:22 55.17928 45.50616 31155 ft 460 kts 134°
2026-04-30 18:23 55.13228 45.58147 31151 ft 451 kts 134°
2026-04-30 18:23 55.08664 45.65428 31156 ft 446 kts 135°
2026-04-30 18:24 55.01756 45.76411 31155 ft 450 kts 135°
2026-04-30 18:25 54.97142 45.83715 31155 ft 451 kts 136°
2026-04-30 18:25 54.90168 45.94706 31145 ft 454 kts 137°
2026-04-30 18:26 54.85434 46.02127 29947 ft 463 kts 137°
2026-04-30 18:26 54.83061 46.05843 29210 ft 459 kts 137°
2026-04-30 18:26 54.80592 46.09209 28545 ft 456 kts 151°
2026-04-30 18:27 54.74510 46.10801 27195 ft 451 kts 189°
2026-04-30 18:27 54.71446 46.09904 26439 ft 447 kts 192°
2026-04-30 18:28 54.65530 46.07917 25727 ft 421 kts 194°
2026-04-30 18:28 54.62727 46.06852 25630 ft 403 kts 195°
2026-04-30 18:28 54.57417 46.04794 25147 ft 380 kts 195°
2026-04-30 18:29 54.54877 46.03822 25155 ft 363 kts 195°
2026-04-30 18:29 54.47677 46.01098 25024 ft 356 kts 195°
2026-04-30 18:30 54.42870 45.99284 24825 ft 354 kts 195°
2026-04-30 18:30 54.38092 45.97485 24329 ft 351 kts 195°
2026-04-30 18:31 54.35702 45.96590 24075 ft 348 kts 195°
2026-04-30 18:31 54.31009 45.94835 23578 ft 346 kts 195°
2026-04-30 18:32 54.26275 45.93980 23065 ft 346 kts 170°
2026-04-30 18:32 54.23948 45.94999 22844 ft 346 kts 164°
2026-04-30 18:32 54.19380 45.97472 22000 ft 353 kts 163°
2026-04-30 18:33 54.17047 45.98758 21509 ft 352 kts 163°
2026-04-30 18:33 54.12415 46.01308 20668 ft 348 kts 163°
2026-04-30 18:33 54.10138 46.02561 20287 ft 345 kts 163°
2026-04-30 18:34 54.07858 46.03817 19868 ft 343 kts 163°
2026-04-30 18:34 54.03384 46.06281 19065 ft 338 kts 163°
2026-04-30 18:34 54.01156 46.07509 18675 ft 336 kts 163°
2026-04-30 18:35 53.98956 46.08721 18277 ft 334 kts 163°
2026-04-30 18:35 53.96737 46.09943 17883 ft 332 kts 163°
2026-04-30 18:35 53.94556 46.11144 17493 ft 329 kts 163°
2026-04-30 18:36 53.90240 46.13522 16713 ft 326 kts 163°
2026-04-30 18:36 53.88101 46.14701 16333 ft 323 kts 163°
2026-04-30 18:36 53.83884 46.17023 15556 ft 320 kts 163°
2026-04-30 18:37 53.81768 46.18189 15178 ft 317 kts 162°
2026-04-30 18:37 53.79665 46.19348 14793 ft 316 kts 162°
2026-04-30 18:37 53.77593 46.20490 14417 ft 314 kts 162°
2026-04-30 18:37 53.75535 46.21624 14038 ft 312 kts 162°
2026-04-30 18:38 53.73493 46.22749 13668 ft 310 kts 162°
2026-04-30 18:38 53.71447 46.23877 13294 ft 308 kts 162°
2026-04-30 18:38 53.69408 46.25000 12923 ft 306 kts 162°
2026-04-30 18:38 53.67401 46.26106 12558 ft 304 kts 162°
2026-04-30 18:39 53.65411 46.27202 12214 ft 302 kts 162°
2026-04-30 18:39 53.63436 46.28292 12159 ft 298 kts 162°
2026-04-30 18:39 53.61435 46.29394 12159 ft 304 kts 162°
2026-04-30 18:39 53.59443 46.30490 12153 ft 303 kts 162°
2026-04-30 18:40 53.57444 46.31591 12154 ft 302 kts 162°
2026-04-30 18:40 53.55444 46.32691 12154 ft 302 kts 162°
2026-04-30 18:40 53.53456 46.33786 12154 ft 302 kts 162°
2026-04-30 18:40 53.51449 46.34891 12154 ft 303 kts 162°
2026-04-30 18:41 53.49458 46.35987 12154 ft 303 kts 162°
2026-04-30 18:41 53.47449 46.37093 12154 ft 302 kts 162°
2026-04-30 18:41 53.45471 46.38182 12155 ft 303 kts 162°
2026-04-30 18:41 53.43517 46.39542 12136 ft 303 kts 145°
2026-04-30 18:42 53.42104 46.42009 11891 ft 298 kts 117°
2026-04-30 18:42 53.41217 46.48590 11197 ft 287 kts 93°
2026-04-30 18:42 53.41030 46.51915 10858 ft 284 kts 92°
2026-04-30 18:45 53.49705 46.77788 8692 ft 262 kts 42°
2026-04-30 18:45 53.51062 46.79852 8442 ft 262 kts 42°
2026-04-30 18:45 53.52421 46.81907 8200 ft 261 kts 42°
2026-04-30 18:46 53.53756 46.83916 8157 ft 259 kts 42°
2026-04-30 18:46 53.55117 46.85964 8159 ft 263 kts 42°
2026-04-30 18:46 53.56479 46.88015 8153 ft 263 kts 42°
2026-04-30 18:46 53.57825 46.90043 8155 ft 263 kts 42°
2026-04-30 18:47 53.59177 46.92149 8155 ft 263 kts 44°
2026-04-30 18:47 53.60502 46.94267 8154 ft 263 kts 43°
2026-04-30 18:47 53.61843 46.96374 8154 ft 264 kts 43°
2026-04-30 18:47 53.63180 46.98466 8155 ft 264 kts 43°
2026-04-30 18:48 53.64526 47.00573 8155 ft 264 kts 43°
2026-04-30 18:48 53.65870 47.02676 8155 ft 265 kts 43°
2026-04-30 18:48 53.67229 47.04805 8154 ft 265 kts 43°
2026-04-30 18:48 53.68571 47.06907 8152 ft 262 kts 43°
2026-04-30 18:49 53.69868 47.08940 8146 ft 247 kts 43°
2026-04-30 18:49 53.71099 47.10869 8157 ft 242 kts 43°
2026-04-30 18:49 53.72343 47.12822 8158 ft 242 kts 43°
2026-04-30 18:49 53.73571 47.14750 8155 ft 243 kts 43°
2026-04-30 18:50 53.74809 47.16695 8155 ft 243 kts 43°
2026-04-30 18:50 53.76065 47.18670 8168 ft 250 kts 43°
2026-04-30 18:50 53.77341 47.20680 8156 ft 253 kts 43°
2026-04-30 18:50 53.78630 47.22709 8153 ft 255 kts 43°
2026-04-30 18:51 53.79891 47.24812 8152 ft 254 kts 45°
2026-04-30 18:51 53.81111 47.26938 8155 ft 254 kts 46°
2026-04-30 18:51 53.82374 47.29155 8141 ft 265 kts 46°
2026-04-30 18:51 53.83675 47.31393 7891 ft 267 kts 44°
2026-04-30 18:52 53.84966 47.33593 7623 ft 263 kts 53°
2026-04-30 18:52 53.86063 47.36068 7373 ft 261 kts 48°
2026-04-30 18:52 53.87333 47.38253 7169 ft 260 kts 46°
2026-04-30 18:52 53.88544 47.40477 7162 ft 259 kts 45°
2026-04-30 18:53 53.89855 47.42606 7154 ft 262 kts 43°
2026-04-30 18:53 53.91176 47.44693 7139 ft 262 kts 44°
2026-04-30 18:53 53.92446 47.46962 6897 ft 263 kts 48°
2026-04-30 18:53 53.93631 47.49233 6678 ft 256 kts 49°
2026-04-30 18:54 53.94802 47.51443 6584 ft 245 kts 48°
2026-04-30 18:54 53.95923 47.53518 6493 ft 235 kts 47°
2026-04-30 18:54 53.97015 47.55512 6402 ft 225 kts 47°
2026-04-30 18:54 53.98053 47.57400 6292 ft 217 kts 47°
2026-04-30 18:55 53.99082 47.59275 6080 ft 215 kts 47°
2026-04-30 18:55 54.01105 47.62958 5595 ft 213 kts 47°
2026-04-30 18:55 54.02119 47.64803 5350 ft 212 kts 47°
2026-04-30 18:56 54.04116 47.68437 5163 ft 209 kts 48°
2026-04-30 18:56 54.05109 47.70244 5149 ft 210 kts 48°
2026-04-30 18:56 54.06097 47.72045 4941 ft 212 kts 48°
2026-04-30 18:57 54.08097 47.75678 4462 ft 210 kts 48°
2026-04-30 18:57 54.09091 47.77485 4220 ft 209 kts 48°
2026-04-30 18:57 54.10080 47.79282 3975 ft 207 kts 48°
2026-04-30 18:58 54.12051 47.82862 3277 ft 206 kts 48°
2026-04-30 18:58 54.13028 47.84637 2939 ft 205 kts 48°
2026-04-30 18:58 54.14000 47.86400 2604 ft 204 kts 48°
2026-04-30 18:59 54.15859 47.89949 2374 ft 204 kts 64°
2026-04-30 19:00 54.14774 47.96493 2196 ft 204 kts 128°
2026-04-30 19:00 54.13923 47.98446 2164 ft 205 kts 124°
2026-04-30 19:00 54.12580 48.02636 2177 ft 201 kts 103°
2026-04-30 19:01 54.13027 48.07172 2166 ft 202 kts 54°
2026-04-30 19:01 54.14045 48.08791 2176 ft 203 kts 37°
2026-04-30 19:02 54.16439 48.11343 2171 ft 203 kts 32°
2026-04-30 19:02 54.18812 48.13834 2104 ft 195 kts 33°
2026-04-30 19:03 54.20928 48.16078 1673 ft 164 kts 34°
2026-04-30 19:03 54.22711 48.17976 1240 ft 141 kts 34°
2026-04-30 19:04 54.24356 48.19734 861 ft 138 kts 34°
2026-04-30 19:04 54.25977 48.21423 467 ft 132 kts 34°
2026-04-30 19:05 54.26925 48.22463 458 ft 47 kts 32°
2026-04-30 19:05 54.27444 48.23016 458 ft 37 kts 32°
2026-04-30 19:06 54.27822 48.23423 458 ft 27 kts 32°
2026-04-30 19:06 54.27976 48.23588 458 ft 24 kts 32°
2026-04-30 19:06 54.28226 48.23871 458 ft 17 kts 52°
2026-04-30 19:07 54.28197 48.24141 458 ft 6 kts 122°
2026-04-30 19:07 54.28193 48.24152 458 ft 0 kts 122°
2026-04-30 19:08 54.28189 48.24162 458 ft 3 kts 132°
2026-04-30 19:09 54.28162 48.24211 458 ft 4 kts 353°
2026-04-30 19:09 54.28193 48.24154 458 ft 9 kts 302°
2026-04-30 19:09 54.28213 48.24098 458 ft 0 kts 302°
2026-04-30 19:11 54.28213 48.24097 458 ft 0 kts 302°
2026-04-30 19:12 54.28214 48.24096 458 ft 0 kts 302°
2026-04-30 19:13 54.28214 48.24095 458 ft 0 kts 302°
2026-04-30 19:13 54.28215 48.24092 458 ft 2 kts 302°
2026-04-30 19:14 54.28247 48.24005 458 ft 14 kts 302°
2026-04-30 19:14 54.28314 48.23826 458 ft 17 kts 302°
2026-04-30 19:14 54.28361 48.23700 458 ft 5 kts 302°
2026-04-30 19:14 54.28387 48.23628 458 ft 9 kts 302°
2026-04-30 19:15 54.28429 48.23514 458 ft 13 kts 303°
2026-04-30 19:15 54.28449 48.23481 458 ft 2 kts 349°
2026-04-30 19:15 54.28488 48.23470 458 ft 4 kts 347°
2026-04-30 19:16 54.28499 48.23465 458 ft 0 kts 346°